User: anonymous   Login
Location: Durham
(35.9940°N, 78.8990°W)
Time: 04:01:44
(UTC-04:00)
Language:

Iridium 63 - Orbit

View from above orbital plane
View from above orbital plane
View from above satellite
View from above satellite

Ground track
Ground track

The orbit data is extracted from the following two-line orbital elements,

1 25286U 98021B   16237.37938352  .00000105  00000-0  30219-4 0  9997
2 25286  86.4031 348.3803 0002164  86.4319 334.0375 14.34607382962493
Epoch (UTC): 24 August 2016 09:06:18
Eccentricity: 0.0002164
inclination: 86.4031°
perigee height: 775 km
apogee height: 778 km
right ascension of ascending node: 348.3803°
argument of perigee: 86.4319°
revolutions per day: 14.34607382
mean anomaly at epoch: 334.0375°
orbit number at epoch: 96249

The dashed part of the orbit path shows where the satellite is in the earth's shadow,  

DLR